Location: *
(51.5000°N, 0.1100°W)
Time: 01:17:26
(UTC+00:00)

Daily predictions for brighter satellites

Satellite Brightness Start Highest point End
(mag) Time Altitude Azimuth Time Altitude Azimuth Time Altitude Azimuth
Meteor 1-12 Rocket 4.3 00:01:45 10° NNW 00:07:41 89° W 00:11:05 27° S
ATLAS 2AS CENTAUR R/B 4.4 00:01:33 10° NW 00:07:55 35° NNE 00:14:02 10° E
Cosmos 1400 Rocket 3.1 00:06:53 36° SSE 00:08:11 54° E 00:12:05 10° NNE
SL-24 R/B 4.4 00:04:14 10° NNE 00:08:47 78° WNW 00:11:17 29° SSW
Cosmos 1607 4.0 00:04:29 21° SW 00:09:02 84° SE 00:15:35 10° NE
Cosmos 1346 Rocket 3.4 00:09:19 10° N 00:13:07 49° ENE 00:14:54 27° SE
Cosmos 724 4.2 00:14:08 24° SW 00:17:52 84° SE 00:23:45 10° NE
SL-8 R/B 4.0 00:15:07 10° W 00:19:37 42° SSW 00:21:55 25° SE
Cosmos 1707 Rocket 3.6 00:23:08 34° S 00:24:59 71° E 00:29:27 10° NNE
Cosmos 2322 Rocket 3.6 00:21:38 10° NNW 00:26:51 36° NE 00:32:03 10° ESE
Cosmos 2333 Rocket 4.1 00:22:38 10° NNW 00:27:38 30° NE 00:32:38 10° ESE
Meteor 1-4 Rocket 4.2 00:29:35 15° ESE 00:30:18 16° E 00:32:17 10° NE
Meteor 2-20 4.4 00:24:12 10° NNW 00:30:23 80° W 00:34:01 26° S
Cosmos 1697 Rocket 3.9 00:26:43 10° NW 00:31:19 27° WSW 00:33:20 21° SW
Cosmos 1655 Rocket 4.2 00:32:00 25° SSW 00:35:53 66° WNW 00:42:16 10° N
Cosmos 1953 3.2 00:32:43 10° N 00:36:29 42° ENE 00:38:42 21° SE
OPS 6432 4.3 00:34:18 10° NW 00:37:20 49° SW 00:37:25 49° SW
Meteor 2-10 Rocket 4.0 00:32:45 10° NNW 00:38:28 58° W 00:41:31 27° SSW
SL-14 R/B 3.2 00:37:20 38° SSW 00:38:42 78° WNW 00:42:33 10° N
Cosmos 1980 Rocket 2.7 00:34:13 10° NW 00:39:37 45° WSW 00:42:11 27° SSW
Okean 2 4.3 00:39:48 25° SE 00:41:33 38° E 00:45:16 10° NNE
USA 267 3.2 00:36:15 10° ENE 00:42:47 69° SE 00:47:52 18° SW
Lacrosse 5 rocket 1.1 00:43:30 10° WNW 00:47:39 72° SW 00:51:09 13° SE
Meteor 1-23 Rocket 4.5 00:46:27 25° SSW 00:49:43 61° WNW 00:55:20 10° N
Cosmos 2228 Rocket 3.3 00:47:54 29° SW 00:49:59 60° WNW 00:54:29 10° N
Cosmos 1908 Rocket 3.9 00:47:09 10° N 00:51:34 62° ENE 00:54:17 22° SSE
Cosmos 841 Rocket 3.6 00:46:36 10° NNW 00:51:53 80° ENE 00:55:58 17° SSE
Cosmos 1758 4.2 00:51:18 10° NNW 00:54:47 34° W 00:55:54 28° SW
Cosmos 2369 4.2 00:50:03 10° NW 00:55:26 44° WSW 00:58:11 26° SSW
Cosmos 1455 2.4 00:52:44 10° N 00:56:09 55° ENE 00:57:51 26° SE
MOZ.5/SAFIR/RUBIN 5/SL-8 4.3 00:55:51 15° SE 00:59:39 57° ENE 01:04:16 10° N
COSMOS 2406 3.2 00:56:14 25° SSW 00:59:42 87° ESE 01:05:30 10° NNE
Cosmos 1733 Rocket 3.7 00:56:12 10° NNW 01:00:15 39° W 01:01:56 27° SW
H-2A R/B 3.2 00:56:30 10° N 01:00:33 36° WNW 01:03:08 19° WSW
SL-19 R/B 4.3 00:58:05 10° NNE 01:02:22 89° W 01:04:05 33° SSW
Nimbus 7 Rocket 4.4 00:57:46 10° NNE 01:03:49 85° ESE 01:07:41 24° SSW
Meteor 1-16 Rocket 4.3 00:58:42 10° NNW 01:04:22 71° W 01:08:01 23° S
Cosmos 676 Rocket 4.0 01:09:18 25° SSW 01:12:29 85° WNW 01:17:51 10° NNE
SL-16 R/B 2.2 01:07:17 10° NNW 01:13:00 87° WSW 01:18:30 11° SSE
CZ-2D R/B 3.7 01:09:31 10° NE 01:14:12 28° E 01:18:48 10° SSE
Orbus 7S? 4.0 01:11:50 10° W 01:14:49 38° NNW 01:17:24 10° NE
SL-16 R/B 4.2 01:10:25 10° ESE 01:15:53 33° ENE 01:21:21 10° N
Cosmos 1954 Rocket 4.2 01:13:43 23° SW 01:17:04 67° WNW 01:22:23 10° NNE
Cosmos 1356 Rocket 3.9 01:16:52 26° SW 01:18:51 48° WNW 01:22:53 10° N
Cosmos 1315 Rocket 2.9 01:18:18 27° S 01:20:16 67° E 01:24:11 10° NNE
USA 234 3.4 01:14:09 10° SSE 01:20:29 49° SW 01:26:50 10° WNW
Cosmos 2219 Rocket 3.7 01:16:31 10° NNW 01:21:47 38° NE 01:27:03 10° ESE
Cosmos 1833 Rocket 4.4 01:17:25 10° W 01:22:05 26° NW 01:26:47 10° NNE
Resurs 1-4 Rocket 3.4 01:17:39 10° NNE 01:22:23 32° E 01:26:44 12° SSE
BREEZE-M DEB (TANK) 4.5 01:21:23 24° S 01:22:39 31° SE 01:28:58 10° ENE
Cosmos 2082 Rocket 2.6 01:19:35 18° SW 01:23:45 58° NW 01:29:26 10° NNE
BREEZE-M DEB (TANK) 2.5 01:17:21 10° W 01:25:22 70° S 01:28:09 10° E
Helios 1A Rocket 3.2 01:24:17 28° SSW 01:25:53 46° W 01:29:37 10° NNW
Aureole 3 4.1 01:28:03 21° WSW 01:29:02 26° WNW 01:31:43 10° N
Cosmos 1238 4.4 01:27:07 10° NNW 01:30:57 75° W 01:32:29 29° S
Cosmos 2360 Rocket 2.5 01:26:33 10° NNW 01:32:15 71° ENE 01:37:54 10° SE
Cosmos 1703 Rocket 3.5 01:31:28 24° SSW 01:34:06 84° WNW 01:38:36 10° N
Cosmos 2237 4.4 01:31:29 10° NW 01:37:05 55° WSW 01:41:41 15° S
Cosmos 2242 Rocket 4.4 01:36:19 15° SSE 01:39:45 46° E 01:44:04 10° NNE
Cosmos 1745 Rocket 4.0 01:38:48 19° SSW 01:43:25 82° W 01:49:46 10° N
Cosmos 1300 Rocket 3.5 01:41:15 10° N 01:45:36 88° W 01:49:00 16° S
Okean 1-7 3.8 01:47:40 20° SW 01:50:12 40° WNW 01:54:19 10° N
Cosmos 2278 4.4 01:50:39 10° NW 01:55:49 36° WSW 01:59:38 17° SSW
RESURS DK-1 2.4 01:51:47 10° NNW 01:55:52 78° ENE 01:59:56 10° SE
CZ-2C R/B 2.6 01:51:03 10° SSE 01:56:13 85° ENE 02:01:27 10° NNW
ATLAS 2AS CENTAUR R/B 2.9 01:52:55 10° NW 01:59:52 75° NE 02:06:32 10° SE
SL-27 R/B 3.0 01:59:10 18° SSE 02:00:47 35° ESE 02:03:23 10° NE
Cosmos 839 Rocket 4.2 01:53:31 10° NW 02:01:05 87° SW 02:07:24 10° SE
Cosmos 1242 Rocket 1.8 02:00:10 25° SSW 02:01:40 87° W 02:04:34 10° NNE
Nadezhda 1 Rocket 4.5 01:55:45 10° NNW 02:01:49 46° W 02:06:40 16° SSW
Meteor 1-4 Rocket 3.4 02:01:44 19° WSW 02:03:05 28° WNW 02:05:43 10° N
ADEOS II 2.9 01:59:17 10° NNE 02:04:19 46° E 02:09:20 10° S
IDEFIX/ARIANE 42P 2.6 02:00:34 10° NNE 02:05:52 87° ESE 02:10:17 15° SSW
SJ 16-02 1.7 02:02:39 16° S 02:05:59 57° ESE 02:10:13 10° NNE
NPP 3.7 02:03:58 10° NNE 02:09:24 90° ESE 02:14:02 14° SSW
Cosmos 2322 Rocket 2.4 02:05:38 10° NW 02:11:08 53° WSW 02:16:36 10° S
Cosmos 1953 3.9 02:09:11 10° NW 02:12:01 19° W 02:13:48 15° WSW
Cosmos 2333 Rocket 2.2 02:06:43 10° NW 02:12:26 71° WSW 02:18:07 10° SSE
SL-4 R/B 3.9 02:10:32 13° S 02:13:00 20° SE 02:16:16 10° E
MSX 3.9 02:10:17 10° NNE 02:16:04 89° ESE 02:21:17 13° SSW
H-2A R/B 3.4 02:12:17 10° N 02:16:17 72° WNW 02:19:23 16° SSW
Cosmos 1850 Rocket 4.2 02:13:26 16° SW 02:17:42 64° WNW 02:22:56 10° NNE
Cosmos 2098 Rocket 3.7 02:15:01 10° N 02:20:14 85° W 02:26:24 10° S
Cosmos 405 Rocket 3.7 02:17:12 10° N 02:20:40 43° ENE 02:24:10 10° SE
Cosmos 1741 Rocket 4.3 02:19:47 15° SW 02:24:07 60° WNW 02:29:22 10° NNE
Cosmos 968 Rocket 3.5 02:20:45 15° SSW 02:25:01 77° WNW 02:30:12 10° NNE
Lacrosse 5 rocket 2.9 02:22:56 10° W 02:25:21 15° SW 02:25:52 15° SW
USA 267 3.7 02:19:21 10° ENE 02:25:49 65° NNW 02:32:16 10° W
COBE Rocket 4.2 02:21:22 10° N 02:26:10 57° WNW 02:30:29 13° SSW
Cosmos 1455 4.2 02:28:40 10° WNW 02:30:11 12° W 02:31:36 10° WSW
CZ-2C R/B 3.4 02:26:07 10° NNE 02:31:59 84° ESE 02:37:42 10° SSW
Genesis I 2.9 02:29:20 15° SW 02:32:09 86° NW 02:35:44 10° NE
Cosmos 1408 2.6 02:31:16 16° SW 02:33:22 43° WNW 02:36:16 10° N
ALOS 3.1 02:31:16 10° NNE 02:35:45 48° E 02:40:13 10° S
EXPRESS MD2 3.4 02:34:30 15° SW 02:36:46 48° SSE 02:41:18 10° E
Meteor 2-5 Rocket 3.9 02:32:25 10° S 02:38:20 89° ESE 02:44:21 10° NNE
Cosmos 1833 4.3 02:33:32 12° SSW 02:38:54 78° ESE 02:44:33 10° NNE
Meteor 1-28 Rocket 3.2 02:44:44 10° S 02:48:14 56° W 02:51:46 10° NNW
ATLAS CENTAUR R/B 3.3 02:48:25 10° SSE 02:50:40 16° ESE 02:52:58 10° ENE
Cosmos 2181 Rocket 4.2 02:45:28 10° NNW 02:51:40 56° W 02:57:45 10° SSW
CZ-2D R/B 2.5 02:49:10 10° N 02:54:30 55° WNW 02:59:47 10° SW
Cosmos 1703 3.6 02:51:41 10° SSW 02:55:13 45° WNW 02:58:50 10° N
SAR-Lupe-4 3.9 02:51:43 10° NNE 02:55:17 67° ESE 02:58:50 10° S
UNK 3.8 02:50:50 10° SSE 02:55:29 87° WSW 03:00:10 10° NNW
Geosat 4.3 02:50:31 10° SE 02:55:31 73° NE 03:00:33 10° NNW
SL-16 R/B 3.7 02:52:45 10° WNW 02:56:17 17° W 02:59:49 10° SW
Cosmos 1825 2.6 02:54:26 10° S 02:57:47 55° E 03:01:10 10° NNE
SL-16 R/B 2.7 02:52:58 10° S 02:59:08 61° WSW 03:05:23 10° NNW
Cosmos 2322 3.7 02:55:08 10° NNW 03:00:53 83° WSW 03:06:34 10° SSE
Resurs 1-4 Rocket 2.7 02:57:20 10° N 03:02:19 45° WNW 03:07:18 10° SW
Cosmos 2219 Rocket 2.4 03:00:28 10° NW 03:05:54 49° WSW 03:11:19 10° S
Cosmos 2082 Rocket 4.3 03:05:11 10° WNW 03:09:06 18° NNW 03:13:02 10° NNE
Cosmos 836 Rocket 4.5 03:04:49 10° NNW 03:10:02 76° WSW 03:15:12 10° SSE
Cosmos 1025 Rocket 4.0 03:06:14 10° SSE 03:10:28 49° E 03:14:42 10° NNE
Cosmos 1455 Rocket 4.0 03:10:00 10° N 03:14:18 53° ENE 03:18:36 10° SSE
Cosmos 2360 Rocket 3.3 03:11:18 10° NW 03:15:43 24° WSW 03:20:06 10° SSW
CZ-2C R/B 3.6 03:12:13 10° NNE 03:16:43 40° E 03:21:04 10° SSE
